Weather History for KNJK - March, 2012

Change the Weather History Date:

Tuesday, March 13, 2012

  Actual Average (KCZZ) Record (KCZZ)
Temperature  
Mean Temperature 62 °F 51 °F  
Max Temperature 79 °F 67 °F 85 °F (1997)
Min Temperature 44 °F 36 °F 19 °F (1956)
Degree Days  
Heating Degree Days 4 14  
Month to date heating degree days 183  
Since 1 July heating degree days 2234  
Cooling Degree Days 0 0  
Month to date cooling degree days 0  
Year to date cooling degree days 0  
Growing Degree Days 12 (Base 50)    
Moisture  
Dew Point 40 °F    
Average Humidity 54    
Maximum Humidity 100    
Minimum Humidity 23    
Precipitation  
Precipitation 0.00 in 0.10 in 1.49 in (1996)
Month to date precipitation 1.38  
Year to date precipitation 7.59  
Snow  
Snow 0.00 in - - ()
Month to date snowfall  
Since 1 July snowfall  
Snow Depth -    
Sea Level Pressure  
Sea Level Pressure 29.97 in    
Wind  
Wind Speed 4 mph (South)    
Max Wind Speed 10 mph    
Max Gust Speed -    
Visibility 8 miles    
Events Fog    
T = Trace of Precipitation, MM = Missing Value Source: NWS Daily Summary

Daily Weather History Graph

Daily Weather History Graph

Search for Another Location

Airport or City:

Trip Planner

Search our weather history database for the weather conditions in past years. The results will help you decide how hot, cold, wet, or windy it might be!

Date:

Astronomy

Mar. 13, 2012 Rise Set
Actual Time 6:54 AM PDT 6:49 PM PDT
Civil Twilight 6:30 AM PDT 7:14 PM PDT
Nautical Twilight 6:01 AM PDT 7:42 PM PDT
Astronomical Twilight 5:32 AM PDT 8:11 PM PDT
Moon 12:05 AM PDT (3/13) 10:32 AM PDT (3/13)
Length of Visible Light 12h 43m
Length of Day
11h 54m
Waning Gibbous, 64% of the Moon is Illuminated
Mar 13
Waning Gibbous
Mar 14
Last Quarter
Mar 22
New
Mar 30
First Quarter
Apr 6
Full

Hourly Weather History & Observations

Time (PDT) Temp. Windchill Dew Point Humidity Pressure Visibility Wind Dir Wind Speed Gust Speed Precip Events Conditions
12:56 AM 54.0 °F - 37.0 °F 53% 29.97 in 10.0 mi South 3.5 mph - N/A   Clear
1:56 AM 55.0 °F - 28.0 °F 35% 29.97 in 10.0 mi Calm Calm - N/A   Clear
2:56 AM 51.1 °F - 36.0 °F 56% 29.97 in 10.0 mi SSE 5.8 mph - N/A   Clear
3:56 AM 48.0 °F - 42.1 °F 80% 29.96 in 10.0 mi Calm Calm - N/A   Clear
4:56 AM 48.0 °F - 43.0 °F 83% 29.96 in 10.0 mi ENE 3.5 mph - N/A   Clear
5:56 AM 46.9 °F - 42.1 °F 83% 29.97 in 9.0 mi Calm Calm - N/A   Clear
6:56 AM 46.9 °F - 45.0 °F 93% 29.99 in 2.0 mi SSE 3.5 mph - N/A   Clear
7:07 AM 44.6 °F 43.1 °F 44.6 °F 100% 29.94 in 0.5 mi SSW 3.5 mph - N/A Fog Fog
7:17 AM 44.6 °F - 42.8 °F 93% 29.94 in 0.1 mi Calm Calm - N/A Fog Fog
7:56 AM 46.0 °F 43.9 °F 46.0 °F 100% 30.00 in 0.1 mi SSW 4.6 mph - N/A Fog Fog
8:16 AM 48.2 °F - 48.2 °F 100% 29.96 in 2.0 mi South 3.5 mph - N/A   Clear
8:28 AM 50.0 °F - 48.2 °F 94% 29.96 in 3.0 mi Calm Calm - N/A   Clear
9:56 AM 64.9 °F - 46.9 °F 52% 30.02 in 10.0 mi South 3.5 mph - N/A   Clear
10:56 AM 70.0 °F - 39.0 °F 32% 30.03 in 10.0 mi Variable 3.5 mph - N/A   Clear
11:56 AM 73.0 °F - 43.0 °F 34% 30.01 in 10.0 mi SE 6.9 mph - N/A   Clear
12:56 PM 75.9 °F - 36.0 °F 23% 29.99 in 10.0 mi SE 6.9 mph - N/A   Clear
1:56 PM 78.1 °F - 39.0 °F 25% 29.96 in 10.0 mi SE 9.2 mph - N/A   Clear
2:56 PM 78.1 °F - 37.9 °F 24% 29.93 in 10.0 mi SE 9.2 mph - N/A   Clear
3:56 PM 79.0 °F - 39.0 °F 24% 29.92 in 10.0 mi SE 10.4 mph - N/A   Clear
4:56 PM 77.0 °F - 44.1 °F 31% 29.91 in 10.0 mi SE 10.4 mph - N/A   Clear
5:56 PM 73.9 °F - 46.0 °F 37% 29.91 in 10.0 mi SSE 10.4 mph - N/A   Clear
6:56 PM 71.1 °F - 44.1 °F 38% 29.93 in 10.0 mi WSW 9.2 mph - N/A   Clear
7:56 PM 68.0 °F - 37.0 °F 32% 29.96 in 10.0 mi WSW 10.4 mph - N/A   Clear
8:56 PM 66.9 °F - 34.0 °F 30% 29.98 in 10.0 mi West 9.2 mph - N/A   Clear
9:56 PM 62.1 °F - 35.1 °F 37% 29.99 in 10.0 mi West 9.2 mph - N/A   Clear
10:56 PM 61.0 °F - 35.1 °F 38% 29.99 in 10.0 mi WSW 10.4 mph - N/A   Clear
11:56 PM 59.0 °F - 30.0 °F 33% 30.00 in 10.0 mi WNW 4.6 mph - N/A   Clear